Valley City, ND

5:51 AM CST on December 11, 2019 (GMT -0600)
Valley City

Weather History for KBAC - October, 2019

Change the Weather History Date:

Sunday, October 13, 2019

  Actual Average (WUND) Record (WUND)
Temperature  
Mean Temperature 32 °F -  
Max Temperature 35 °F - - (-1)
Min Temperature 30 °F - - (-1)
Degree Days  
Heating Degree Days 32    
Moisture  
Dew Point 32 °F    
Average Humidity 97    
Maximum Humidity 100    
Minimum Humidity 87    
Precipitation  
Precipitation 0.00 in - - ()
Sea Level Pressure  
Sea Level Pressure 29.82 in    
Wind  
Wind Speed 15 mph (NW)    
Max Wind Speed 21 mph    
Max Gust Speed 24 mph    
Visibility 10 miles    
Events      
Averages and records for this station are not official NWS values.
T = Trace of Precipitation, MM = Missing Value Source: NWS Daily Summary

Daily Weather History Graph

Daily Weather History Graph

Search for Another Location

Airport or City:

Astronomy

Oct. 13, 2019 Rise Set
Actual Time 7:47 AM CDT 6:48 PM CDT
Civil Twilight 7:16 AM CDT 7:19 PM CDT
Nautical Twilight 6:41 AM CDT 7:54 PM CDT
Astronomical Twilight 6:05 AM CDT 8:29 PM CDT
Moon 7:15 PM CDT (10/13) 7:17 AM CDT (10/13)
Length of Visible Light 12h 02m
Length of Day
11h 01m
Full, 100% of the Moon is Illuminated
Oct 13
Full
Oct 13
Full
Oct 21
Last Quarter
Oct 27
New
Nov 4
First Quarter

Hourly Weather History & Observations

Time (CDT) Temp. Windchill Dew Point Humidity Pressure Visibility Wind Dir Wind Speed Gust Speed Precip Events Conditions
12:55 AM - - - N/A% 29.67 in 10.0 mi WNW 19.6 mph - N/A   Overcast
1:15 AM 32.0 °F 21.2 °F 32.0 °F 100% 29.68 in 10.0 mi NW 16.1 mph 23.0 mph N/A   Overcast
1:35 AM 32.0 °F 20.8 °F 32.0 °F 100% 29.68 in 10.0 mi NW 17.3 mph - N/A   Overcast
1:55 AM 32.0 °F 20.5 °F 32.0 °F 100% 29.68 in 10.0 mi WNW 18.4 mph - N/A   Overcast
2:15 AM 32.0 °F 21.2 °F 32.0 °F 100% 29.69 in 10.0 mi NW 16.1 mph - N/A   Overcast
2:35 AM 32.0 °F 21.2 °F 32.0 °F 100% 29.69 in 10.0 mi NW 16.1 mph - N/A   Overcast
2:55 AM 32.0 °F 21.2 °F 32.0 °F 100% 29.70 in 10.0 mi NW 16.1 mph - N/A   Overcast
3:15 AM 32.0 °F 19.8 °F 32.0 °F 100% 29.70 in 10.0 mi NW 20.7 mph - N/A   Overcast
3:35 AM 32.0 °F 20.1 °F 32.0 °F 100% 29.71 in 10.0 mi NW 19.6 mph - N/A   Overcast
3:55 AM 32.0 °F 20.5 °F 32.0 °F 100% 29.71 in 10.0 mi NW 18.4 mph - N/A   Overcast
4:15 AM 32.0 °F 21.2 °F 32.0 °F 100% 29.71 in 10.0 mi NW 16.1 mph - N/A   Overcast
4:35 AM - - - N/A% 29.71 in 10.0 mi NW 13.8 mph - N/A   Overcast
4:55 AM 32.0 °F 21.2 °F 30.2 °F 93% 29.72 in 10.0 mi WNW 16.1 mph - N/A   Overcast
5:15 AM 30.2 °F 19.3 °F 30.2 °F 100% 29.72 in 10.0 mi WNW 15.0 mph 20.7 mph N/A   Overcast
5:35 AM 30.2 °F 18.9 °F 30.2 °F 100% 29.73 in 10.0 mi NW 16.1 mph 24.2 mph N/A   Overcast
5:55 AM 30.2 °F 19.8 °F 30.2 °F 100% 29.73 in 10.0 mi WNW 13.8 mph 20.7 mph N/A   Overcast
6:15 AM 30.2 °F 19.3 °F 30.2 °F 100% 29.73 in 10.0 mi WNW 15.0 mph - N/A   Overcast
6:35 AM 30.2 °F 18.9 °F 30.2 °F 100% 29.74 in 10.0 mi NW 16.1 mph - N/A   Overcast
6:55 AM 30.2 °F 19.3 °F 30.2 °F 100% 29.74 in 10.0 mi WNW 15.0 mph - N/A   Overcast
7:15 AM 30.2 °F 18.9 °F 30.2 °F 100% 29.74 in 10.0 mi NW 16.1 mph - N/A   Overcast
7:35 AM 30.2 °F 18.9 °F 30.2 °F 100% 29.75 in 10.0 mi NW 16.1 mph - N/A   Overcast
7:55 AM 30.2 °F 19.3 °F 30.2 °F 100% 29.76 in 10.0 mi NW 15.0 mph - N/A   Overcast
8:15 AM 32.0 °F 22.1 °F 32.0 °F 100% 29.76 in 10.0 mi NW 13.8 mph 20.7 mph N/A   Overcast
8:35 AM 32.0 °F 23.0 °F 32.0 °F 100% 29.77 in 10.0 mi NW 11.5 mph 18.4 mph N/A   Overcast
8:55 AM 32.0 °F 21.2 °F 32.0 °F 100% 29.77 in 10.0 mi NW 16.1 mph - N/A   Overcast
9:15 AM 32.0 °F 22.1 °F 32.0 °F 100% 29.78 in 10.0 mi NW 13.8 mph - N/A   Overcast
9:35 AM 32.0 °F 21.2 °F 32.0 °F 100% 29.79 in 10.0 mi NW 16.1 mph - N/A   Overcast
9:55 AM 32.0 °F 21.6 °F 32.0 °F 100% 29.80 in 10.0 mi NW 15.0 mph - N/A   Overcast
10:15 AM 32.0 °F 21.2 °F 32.0 °F 100% 29.80 in 10.0 mi NW 16.1 mph - N/A   Overcast
10:35 AM 32.0 °F 21.2 °F 32.0 °F 100% 29.81 in 10.0 mi NW 16.1 mph 21.9 mph N/A   Overcast
10:55 AM 32.0 °F 20.8 °F 32.0 °F 100% 29.81 in 10.0 mi NW 17.3 mph - N/A   Overcast
11:15 AM 33.8 °F 24.3 °F 32.0 °F 93% 29.82 in 10.0 mi NW 13.8 mph 19.6 mph N/A   Overcast
11:35 AM 33.8 °F 22.8 °F 32.0 °F 93% 29.83 in 10.0 mi NW 18.4 mph - N/A   Overcast
11:55 AM 33.8 °F 23.5 °F 32.0 °F 93% 29.83 in 10.0 mi NNW 16.1 mph - N/A   Overcast
12:15 PM 33.8 °F 23.5 °F 32.0 °F 93% 29.84 in 10.0 mi NNW 16.1 mph - N/A   Overcast
12:35 PM 33.8 °F 23.9 °F 32.0 °F 93% 29.84 in 10.0 mi NW 15.0 mph - N/A   Overcast
1:15 PM 33.8 °F 23.9 °F 32.0 °F 93% 29.86 in 10.0 mi NNW 15.0 mph - N/A   Overcast
1:35 PM 35.6 °F 27.1 °F 32.0 °F 87% 29.86 in 10.0 mi NW 12.7 mph - N/A   Overcast
1:55 PM 35.6 °F 26.2 °F 32.0 °F 87% 29.86 in 10.0 mi NW 15.0 mph - N/A   Overcast
2:15 PM 35.6 °F 26.2 °F 32.0 °F 87% 29.87 in 10.0 mi NW 15.0 mph - N/A   Overcast
2:35 PM 35.6 °F 27.1 °F 32.0 °F 87% 29.87 in 10.0 mi NW 12.7 mph - N/A   Overcast
2:55 PM 35.6 °F 27.1 °F 32.0 °F 87% 29.87 in 10.0 mi NW 12.7 mph 18.4 mph N/A   Overcast
3:15 PM 35.6 °F 26.6 °F 33.8 °F 93% 29.88 in 10.0 mi NW 13.8 mph - N/A   Overcast
3:35 PM 35.6 °F 26.6 °F 33.8 °F 93% 29.88 in 10.0 mi NW 13.8 mph - N/A   Overcast
3:55 PM 35.6 °F 27.1 °F 33.8 °F 93% 29.88 in 10.0 mi NW 12.7 mph - N/A   Overcast
4:15 PM 35.6 °F 27.5 °F 33.8 °F 93% 29.88 in 10.0 mi NW 11.5 mph - N/A   Overcast
4:35 PM 35.6 °F 28.0 °F 33.8 °F 93% 29.89 in 10.0 mi NW 10.4 mph - N/A   Overcast
4:55 PM 35.6 °F 28.6 °F 32.0 °F 87% 29.89 in 10.0 mi WNW 9.2 mph 16.1 mph N/A   Overcast
5:15 PM 35.6 °F 28.0 °F 32.0 °F 87% 29.89 in 10.0 mi WNW 10.4 mph - N/A   Overcast
5:35 PM 35.6 °F 27.5 °F 33.8 °F 93% 29.89 in 10.0 mi NW 11.5 mph - N/A   Overcast
5:55 PM 35.6 °F 28.6 °F 33.8 °F 93% 29.90 in 10.0 mi WNW 9.2 mph - N/A   Overcast
6:15 PM 33.8 °F 25.8 °F 33.8 °F 100% 29.91 in 10.0 mi WNW 10.4 mph - N/A   Overcast
6:35 PM 33.8 °F 27.0 °F 33.8 °F 100% 29.92 in 10.0 mi WNW 8.1 mph - N/A   Overcast
6:55 PM 33.8 °F 27.7 °F 33.8 °F 100% 29.92 in 10.0 mi WNW 6.9 mph - N/A   Overcast
7:15 PM 33.8 °F 27.7 °F 33.8 °F 100% 29.92 in 10.0 mi NW 6.9 mph - N/A   Overcast
7:35 PM 33.8 °F 28.6 °F 33.8 °F 100% 29.93 in 10.0 mi NW 5.8 mph - N/A   Overcast
7:55 PM 33.8 °F 28.6 °F 33.8 °F 100% 29.93 in 10.0 mi NW 5.8 mph - N/A   Overcast
8:15 PM 33.8 °F 30.8 °F 33.8 °F 100% 29.93 in 10.0 mi NW 3.5 mph - N/A   Overcast
8:35 PM 33.8 °F - 33.8 °F 100% 29.94 in 10.0 mi Calm Calm - N/A   Mostly Cloudy
8:55 PM - - - N/A% 29.94 in 10.0 mi Calm Calm - N/A   Scattered Clouds
9:15 PM 32.0 °F 26.4 °F 32.0 °F 100% 29.94 in 10.0 mi West 5.8 mph - N/A   Mostly Cloudy
9:35 PM 32.0 °F 25.6 °F 32.0 °F 100% 29.93 in 10.0 mi West 6.9 mph - N/A   Overcast
9:55 PM 32.0 °F 24.8 °F 32.0 °F 100% 29.93 in 10.0 mi West 8.1 mph - N/A   Overcast
10:15 PM 32.0 °F 25.6 °F 32.0 °F 100% 29.93 in 10.0 mi West 6.9 mph - N/A   Overcast
10:35 PM 32.0 °F 25.6 °F 32.0 °F 100% 29.93 in 10.0 mi West 6.9 mph - N/A   Mostly Cloudy
10:55 PM 32.0 °F 24.8 °F 32.0 °F 100% 29.94 in 10.0 mi West 8.1 mph - N/A   Mostly Cloudy
11:15 PM 32.0 °F 24.2 °F 32.0 °F 100% 29.93 in 10.0 mi West 9.2 mph - N/A   Overcast
11:35 PM 32.0 °F 24.2 °F 32.0 °F 100% 29.93 in 10.0 mi West 9.2 mph - N/A   Overcast
11:55 PM - - - N/A% 29.94 in 10.0 mi West 10.4 mph - N/A   Overcast